• în România
  • Lista ţărilor
  • Pe 7 zile
  • Temperatura apei
  • Hartă satelitară
  • Meteo pe hartă
  • Widget-uri
  • user-avatar
    Intrare

    Meteo pe oră la Gorodok

    Astăzi, 21 Iulie, Sâmbătă

    Timp Temperatura Precipitaţii Vânt Presiune Umiditate
    00:00 +20°C° 0,4 mm 2 m/s 735 mmHg 91%
    01:00 +20°C° 0,5 mm 2 m/s 736 mmHg 92%
    02:00 +19°C° 0,5 mm 2 m/s 736 mmHg 93%
    03:00 +19°C° 0 mm 2 m/s 736 mmHg 94%
    04:00 +20°C° 0,7 mm 2 m/s 736 mmHg 94%
    05:00 +20°C° 0,7 mm 2 m/s 736 mmHg 94%
    06:00 +21°C° 0,7 mm 1 m/s 736 mmHg 93%
    07:00 +21°C° 0,5 mm 2 m/s 736 mmHg 90%
    08:00 +23°C° 0,5 mm 2 m/s 736 mmHg 86%
    09:00 +24°C° 0 mm 3 m/s 736 mmHg 85%
    10:00 +24°C° 1,5 mm 3 m/s 736 mmHg 83%
    11:00 +25°C° 1,5 mm 3 m/s 736 mmHg 80%
    12:00 +26°C° 1,5 mm 4 m/s 736 mmHg 77%
    13:00 +26°C° 0,9 mm 4 m/s 736 mmHg 76%
    14:00 +27°C° 0,9 mm 4 m/s 736 mmHg 75%
    15:00 +27°C° 0,9 mm 4 m/s 736 mmHg 75%
    16:00 +27°C° 0,9 mm 4 m/s 736 mmHg 77%
    17:00 +26°C° 0,9 mm 4 m/s 736 mmHg 80%
    18:00 +26°C° 0,9 mm 3 m/s 736 mmHg 83%
    19:00 +25°C° 0,3 mm 3 m/s 736 mmHg 86%
    20:00 +22°C° 0,3 mm 3 m/s 736 mmHg 89%
    21:00 +21°C° 0,3 mm 3 m/s 736 mmHg 92%
    22:00 +21°C° 0 mm 3 m/s 736 mmHg 94%
    23:00 +20°C° 0 mm 3 m/s 736 mmHg 95%

    Mâine, 22 Iulie, Duminică

    Timp Temperatura Precipitaţii Vânt Presiune Umiditate
    00:00 +20°C° 0 mm 3 m/s 736 mmHg 96%
    01:00 +20°C° 0 mm 4 m/s 736 mmHg 97%
    02:00 +20°C° 0 mm 4 m/s 736 mmHg 97%
    03:00 +20°C° 0 mm 4 m/s 736 mmHg 97%
    04:00 +20°C° 0,2 mm 4 m/s 736 mmHg 97%
    05:00 +20°C° 0,2 mm 5 m/s 736 mmHg 97%
    06:00 +20°C° 0,2 mm 5 m/s 736 mmHg 96%
    07:00 +20°C° 0,1 mm 5 m/s 736 mmHg 95%
    08:00 +20°C° 0,1 mm 5 m/s 737 mmHg 94%
    09:00 +20°C° 0,1 mm 5 m/s 737 mmHg 93%
    10:00 +21°C° 0,1 mm 5 m/s 737 mmHg 92%
    11:00 +21°C° 0,1 mm 5 m/s 737 mmHg 91%
    12:00 +21°C° 0,1 mm 6 m/s 737 mmHg 90%
    13:00 +21°C° 0,1 mm 6 m/s 737 mmHg 89%
    14:00 +22°C° 0,1 mm 5 m/s 737 mmHg 89%
    15:00 +22°C° 0,1 mm 5 m/s 737 mmHg 88%
    16:00 +22°C° 0,1 mm 5 m/s 737 mmHg 88%
    17:00 +21°C° 0,1 mm 5 m/s 737 mmHg 88%
    18:00 +21°C° 0,1 mm 5 m/s 737 mmHg 88%
    19:00 +21°C° 0 mm 5 m/s 737 mmHg 89%
    20:00 +20°C° 0 mm 5 m/s 737 mmHg 89%
    21:00 +20°C° 0 mm 6 m/s 738 mmHg 90%
    22:00 +19°C° 0 mm 5 m/s 738 mmHg 90%
    23:00 +19°C° 0 mm 5 m/s 738 mmHg 91%

    Poimâine, 23 Iulie, Luni

    Timp Temperatura Precipitaţii Vânt Presiune Umiditate
    00:00 +17°C° 0 mm 5 m/s 738 mmHg 91%
    01:00 +17°C° 0,1 mm 5 m/s 737 mmHg 92%
    02:00 +17°C° 0,1 mm 5 m/s 737 mmHg 93%
    03:00 +17°C° 0,1 mm 5 m/s 737 mmHg 93%
    04:00 +17°C° 0 mm 5 m/s 737 mmHg 94%
    05:00 +17°C° 0 mm 5 m/s 737 mmHg 94%
    06:00 +17°C° 0 mm 5 m/s 737 mmHg 94%
    07:00 +17°C° 0,1 mm 5 m/s 737 mmHg 94%
    08:00 +17°C° 0,1 mm 5 m/s 737 mmHg 94%
    09:00 +17°C° 0,1 mm 5 m/s 737 mmHg 94%
    10:00 +19°C° 0,1 mm 5 m/s 738 mmHg 92%
    11:00 +19°C° 0,1 mm 5 m/s 738 mmHg 91%
    12:00 +20°C° 0,1 mm 5 m/s 738 mmHg 89%
    13:00 +20°C° 0 mm 5 m/s 738 mmHg 88%
    14:00 +21°C° 0 mm 5 m/s 738 mmHg 88%
    15:00 +21°C° 0 mm 5 m/s 738 mmHg 87%
    16:00 +22°C° 0,1 mm 5 m/s 737 mmHg 86%
    17:00 +22°C° 0,1 mm 5 m/s 737 mmHg 86%
    18:00 +23°C° 0,1 mm 5 m/s 737 mmHg 85%
    19:00 +22°C° 0,7 mm 5 m/s 737 mmHg 88%
    20:00 +21°C° 0,7 mm 5 m/s 738 mmHg 90%
    21:00 +20°C° 0,7 mm 5 m/s 738 mmHg 93%
    22:00 +20°C° 0,8 mm 5 m/s 738 mmHg 94%
    23:00 +20°C° 0,8 mm 4 m/s 738 mmHg 95%

    24 Iulie, Marţi

    Timp Temperatura Precipitaţii Vânt Presiune Umiditate
    00:00 +20°C° 0,8 mm 4 m/s 738 mmHg 96%
    01:00 +20°C° 0,2 mm 4 m/s 738 mmHg 96%
    02:00 +19°C° 0,2 mm 5 m/s 738 mmHg 96%
    03:00 +19°C° 0,2 mm 5 m/s 738 mmHg 96%
    04:00 +19°C° 0,1 mm 5 m/s 738 mmHg 96%
    05:00 +19°C° 0,1 mm 5 m/s 739 mmHg 96%
    06:00 +19°C° 0,1 mm 5 m/s 739 mmHg 96%
    07:00 +20°C° 0,1 mm 5 m/s 739 mmHg 95%
    08:00 +20°C° 0,1 mm 5 m/s 739 mmHg 94%
    09:00 +21°C° 0,1 mm 5 m/s 740 mmHg 93%
    10:00 +22°C° 0,4 mm 5 m/s 740 mmHg 90%
    11:00 +23°C° 0,4 mm 5 m/s 740 mmHg 87%
    12:00 +25°C° 0,4 mm 4 m/s 740 mmHg 84%
    13:00 +25°C° 0,7 mm 5 m/s 740 mmHg 82%
    14:00 +26°C° 0,7 mm 5 m/s 740 mmHg 80%
    15:00 +26°C° 0,7 mm 5 m/s 741 mmHg 78%
    16:00 +26°C° 0,5 mm 5 m/s 741 mmHg 81%
    17:00 +25°C° 0,5 mm 4 m/s 741 mmHg 83%
    18:00 +23°C° 0,5 mm 4 m/s 741 mmHg 86%
    19:00 +22°C° 0,4 mm 4 m/s 741 mmHg 88%
    20:00 +21°C° 0,4 mm 4 m/s 741 mmHg 89%
    21:00 +20°C° 0,4 mm 4 m/s 742 mmHg 91%
    22:00 +20°C° 0,1 mm 4 m/s 742 mmHg 91%
    23:00 +19°C° 0,1 mm 5 m/s 742 mmHg 90%

    25 Iulie, Miercuri

    Timp Temperatura Precipitaţii Vânt Presiune Umiditate
    00:00 +19°C° 0,1 mm 5 m/s 742 mmHg 89%
    01:00 +19°C° 0 mm 5 m/s 742 mmHg 88%
    02:00 +17°C° 0 mm 5 m/s 742 mmHg 88%
    03:00 +17°C° 0 mm 5 m/s 742 mmHg 87%
    04:00 +17°C° 0 mm 5 m/s 742 mmHg 86%
    05:00 +17°C° 0 mm 5 m/s 743 mmHg 86%
    06:00 +17°C° 0 mm 5 m/s 743 mmHg 86%
    07:00 +19°C° 0 mm 5 m/s 743 mmHg 83%
    08:00 +20°C° 0 mm 5 m/s 744 mmHg 80%
    09:00 +20°C° 0 mm 6 m/s 744 mmHg 78%
    10:00 +21°C° 0 mm 6 m/s 744 mmHg 76%
    11:00 +21°C° 0 mm 6 m/s 744 mmHg 74%
    12:00 +22°C° 0 mm 6 m/s 744 mmHg 72%
    13:00 +23°C° 0 mm 6 m/s 744 mmHg 69%
    14:00 +23°C° 0 mm 6 m/s 744 mmHg 67%
    15:00 +24°C° 0 mm 6 m/s 745 mmHg 65%
    16:00 +24°C° 0 mm 6 m/s 745 mmHg 67%
    17:00 +23°C° 0 mm 5 m/s 745 mmHg 69%
    18:00 +23°C° 0 mm 5 m/s 745 mmHg 71%
    19:00 +22°C° 0 mm 5 m/s 745 mmHg 74%
    20:00 +21°C° 0 mm 4 m/s 745 mmHg 78%
    21:00 +20°C° 0 mm 4 m/s 745 mmHg 81%
    22:00 +20°C° 0 mm 4 m/s 745 mmHg 84%
    23:00 +19°C° 0 mm 3 m/s 745 mmHg 87%

    26 Iulie, Joi

    Timp Temperatura Precipitaţii Vânt Presiune Umiditate
    00:00 +19°C° 0 mm 3 m/s 745 mmHg 90%
    01:00 +19°C° 0 mm 3 m/s 745 mmHg 90%
    02:00 +19°C° 0 mm 3 m/s 745 mmHg 90%
    03:00 +19°C° 0 mm 3 m/s 745 mmHg 90%
    04:00 +19°C° 0 mm 4 m/s 746 mmHg 90%
    05:00 +19°C° 0 mm 4 m/s 746 mmHg 90%
    06:00 +19°C° 0 mm 4 m/s 746 mmHg 90%
    07:00 +20°C° 0 mm 5 m/s 746 mmHg 86%
    08:00 +21°C° 0 mm 5 m/s 746 mmHg 82%
    09:00 +22°C° 0 mm 5 m/s 746 mmHg 78%
    10:00 +25°C° 0 mm 5 m/s 746 mmHg 75%
    11:00 +26°C° 0 mm 5 m/s 746 mmHg 72%
    12:00 +27°C° 0 mm 5 m/s 746 mmHg 69%
    13:00 +27°C° 0 mm 6 m/s 747 mmHg 67%
    14:00 +28°C° 0 mm 6 m/s 747 mmHg 66%
    15:00 +29°C° 0 mm 6 m/s 747 mmHg 64%
    16:00 +29°C° 0 mm 5 m/s 747 mmHg 66%
    17:00 +28°C° 0 mm 5 m/s 747 mmHg 69%
    18:00 +28°C° 0 mm 4 m/s 747 mmHg 71%
    19:00 +27°C° 0 mm 4 m/s 747 mmHg 74%
    20:00 +25°C° 0 mm 4 m/s 747 mmHg 76%
    21:00 +23°C° 0 mm 4 m/s 747 mmHg 78%
    22:00 +22°C° 0 mm 4 m/s 748 mmHg 79%
    23:00 +22°C° 0 mm 4 m/s 748 mmHg 79%
    Arată mai mult